CW7410 Weather Reports


time (UTC)temp
C
wind
direction
speed
KPH
gust
KPH
rain 1hr
cm
rain 24hr
cm
rain mn
cm
humidity
%
barometer
mb
20260509000051 26 250 3.2 9.7 0.00 0.00 0.00 25 1013.5
20260508235539 26 155 0.0 8.0 0.00 0.00 0.00 24 1013.5
20260508235040 26 322 4.8 14.5 0.00 0.00 0.00 27 1013.6
20260508234550 26 0 1.6 14.5 0.00 0.00 0.00 24 1013.6
20260508234038 26 219 4.8 11.3 0.00 0.00 0.00 25 1013.7
20260508233543 26 208 1.6 9.7 0.00 0.00 0.00 26 1013.7
20260508233054 26 203 3.2 14.5 0.00 0.00 0.00 24 1013.7
20260508232538 26 262 1.6 14.5 0.00 0.00 0.00 25 1013.8
20260508232038 25 202 3.2 14.5 0.00 0.00 0.00 24 1013.8
20260508231557 25 195 3.2 14.5 0.00 0.00 0.00 25 1013.8
20260508231039 25 215 4.8 14.5 0.00 0.00 0.00 25 1013.7
20260508230544 25 257 8.0 14.5 0.00 0.00 0.00 24 1013.8
20260508230055 25 126 3.2 17.7 0.00 0.00 0.00 25 1013.8
20260508225540 25 251 8.0 22.5 0.00 0.00 0.00 26 1014.0
20260508225040 25 244 8.0 22.5 0.00 0.00 0.00 26 1014.0
20260508224556 24 190 8.0 17.7 0.00 0.00 0.00 26 1014.1
20260508224040 24 338 8.0 14.5 0.00 0.00 0.00 27 1014.1
20260508223539 25 70 4.8 17.7 0.00 0.00 0.00 27 1014.2
20260508223052 25 319 6.4 17.7 0.00 0.00 0.00 24 1014.3
20260508222540 25 259 8.0 19.3 0.00 0.00 0.00 25 1014.4
20260508222039 25 281 4.8 20.9 0.00 0.00 0.00 25 1014.4
20260508221553 25 257 8.0 20.9 0.00 0.00 0.00 26 1014.6
20260508221039 25 250 11.3 20.9 0.00 0.00 0.00 25 1014.6
20260508220539 25 260 4.8 20.9 0.00 0.00 0.00 26 1014.6
20260508220059 25 0 6.4 22.5 0.00 0.00 0.00 25 1014.7
20260508215539 25 306 11.3 22.5 0.00 0.00 0.00 26 1014.7
20260508215039 25 329 14.5 22.5 0.00 0.00 0.00 27 1014.8
20260508214603 25 306 1.6 16.1 0.00 0.00 0.00 27 1014.9
20260508214038 24 302 8.0 22.5 0.00 0.00 0.00 25 1014.9
20260508213538 24 304 6.4 22.5 0.00 0.00 0.00 28 1014.9
20260508213050 24 300 11.3 22.5 0.00 0.00 0.00 27 1015.1
20260508212539 24 311 1.6 20.9 0.00 0.00 0.00 27 1015.1
20260508212040 24 287 11.3 22.5 0.00 0.00 0.00 26 1015.2
20260508211548 24 311 8.0 22.5 0.00 0.00 0.00 27 1015.3
20260508211038 24 296 12.9 22.5 0.00 0.00 0.00 26 1015.3
20260508210539 24 180 9.7 22.5 0.00 0.00 0.00 26 1015.3
20260508210055 24 266 6.4 22.5 0.00 0.00 0.00 26 1015.4
20260508205538 24 310 14.5 22.5 0.00 0.00 0.00 27 1015.5
20260508205040 23 231 6.4 20.9 0.00 0.00 0.00 27 1015.5
20260508204553 23 304 8.0 22.5 0.00 0.00 0.00 28 1015.6
20260508204038 23 270 8.0 22.5 0.00 0.00 0.00 27 1015.6
20260508203540 23 296 11.3 22.5 0.00 0.00 0.00 27 1015.8
20260508203053 23 288 11.3 19.3 0.00 0.00 0.00 27 1015.8
20260508202542 23 302 9.7 24.1 0.00 0.00 0.00 28 1015.8
20260508202038 23 229 8.0 24.1 0.00 0.00 0.00 28 1015.7
20260508201552 23 252 14.5 24.1 0.00 0.00 0.00 27 1015.8
20260508201044 23 276 4.8 20.9 0.00 0.00 0.00 28 1015.7
20260508200538 23 280 8.0 19.3 0.00 0.00 0.00 28 1015.8
20260508200053 23 198 9.7 20.9 0.00 0.00 0.00 29 1015.8
20260508195539 22 252 8.0 20.9 0.00 0.00 0.00 30 1015.8
20260508195039 22 28 9.7 20.9 0.00 0.00 0.00 29 1015.8
20260508194550 22 250 12.9 19.3 0.00 0.00 0.00 29 1015.8
20260508194039 22 250 11.3 19.3 0.00 0.00 0.00 31 1015.8
20260508193538 22 227 11.3 22.5 0.00 0.00 0.00 32 1015.9
20260508193110 22 44 9.7 24.1 0.00 0.00 0.00 31 1015.9
20260508192538 22 290 11.3 24.1 0.00 0.00 0.00 32 1015.9
20260508192043 22 308 12.9 24.1 0.00 0.00 0.00 31 1015.9
20260508191555 22 302 9.7 24.1 0.00 0.00 0.00 33 1016.0
20260508191038 22 234 9.7 24.1 0.00 0.00 0.00 32 1016.1
20260508190540 22 249 14.5 24.1 0.00 0.00 0.00 31 1016.1
20260508190105 22 287 9.7 20.9 0.00 0.00 0.00 32 1016.1
20260508185543 22 262 11.3 24.1 0.00 0.00 0.00 33 1016.1
20260508185041 22 247 11.3 24.1 0.00 0.00 0.00 32 1016.2
20260508184558 22 261 9.7 24.1 0.00 0.00 0.00 32 1016.2
20260508184039 22 209 9.7 19.3 0.00 0.00 0.00 32 1016.2
20260508183539 22 225 11.3 19.3 0.00 0.00 0.00 32 1016.3
20260508183111 22 236 11.3 19.3 0.00 0.00 0.00 33 1016.4
20260508182541 21 196 9.7 20.9 0.00 0.00 0.00 35 1016.4
20260508182039 21 201 9.7 20.9 0.00 0.00 0.00 35 1016.5
20260508181553 21 273 11.3 19.3 0.00 0.00 0.00 34 1016.6
20260508181042 21 196 8.0 17.7 0.00 0.00 0.00 37 1016.6
20260508180539 21 269 4.8 17.7 0.00 0.00 0.00 36 1016.6
20260508175539 21 155 6.4 16.1 0.00 0.00 0.00 35 1016.7
20260508175038 21 0 8.0 16.1 0.00 0.00 0.00 35 1016.7
20260508174604 21 244 6.4 16.1 0.00 0.00 0.00 37 1016.8
20260508174038 21 218 4.8 12.9 0.00 0.00 0.00 34 1016.8
20260508173537 21 173 6.4 16.1 0.00 0.00 0.00 38 1016.8
20260508173051 21 257 6.4 17.7 0.00 0.00 0.00 39 1016.9
20260508172541 21 238 3.2 17.7 0.00 0.00 0.00 39 1016.8
20260508172044 20 241 8.0 16.1 0.00 0.00 0.00 38 1016.8
20260508171554 20 286 4.8 16.1 0.00 0.00 0.00 39 1016.9
20260508171042 20 257 4.8 16.1 0.00 0.00 0.00 40 1016.9
20260508170540 20 269 6.4 16.1 0.00 0.00 0.00 41 1016.9
20260508170059 20 260 4.8 14.5 0.00 0.00 0.00 43 1016.8
20260508165539 20 264 8.0 16.1 0.00 0.00 0.00 43 1016.8
20260508165040 20 228 4.8 16.1 0.00 0.00 0.00 46 1016.8
20260508164613 20 224 8.0 16.1 0.00 0.00 0.00 46 1016.8
20260508164038 20 309 9.7 16.1 0.00 0.00 0.00 46 1016.7
20260508163542 20 241 3.2 11.3 0.00 0.00 0.00 47 1016.7
20260508163051 20 225 1.6 12.9 0.00 0.00 0.00 47 1016.6
20260508162538 20 204 1.6 12.9 0.00 0.00 0.00 47 1016.7
20260508162039 20 244 3.2 8.0 0.00 0.00 0.00 47 1016.7
20260508161602 20 224 3.2 6.4 0.00 0.00 0.00 47 1016.7
20260508161038 19 261 1.6 6.4 0.00 0.00 0.00 49 1016.6
20260508160538 19 0 0.0 6.4 0.00 0.00 0.00 49 1016.6
20260508160054 19 218 1.6 9.7 0.00 0.00 0.00 49 1016.7
20260508155539 18 225 1.6 11.3 0.00 0.00 0.00 49 1016.7
20260508155039 18 195 4.8 11.3 0.00 0.00 0.00 50 1016.7
20260508154553 18 0 0.0 6.4 0.00 0.00 0.00 50 1016.5
20260508154040 18 161 0.0 6.4 0.00 0.00 0.00 51 1016.5
20260508153539 17 170 3.2 6.4 0.00 0.00 0.00 52 1016.5
20260508153056 17 48 1.6 4.8 0.00 0.00 0.00 53 1016.5
20260508152538 17 70 1.6 4.8 0.00 0.00 0.00 55 1016.5
20260508152038 17 85 1.6 4.8 0.00 0.00 0.00 55 1016.4
20260508151551 16 77 0.0 4.8 0.00 0.00 0.00 55 1016.4
20260508151039 16 0 0.0 3.2 0.00 0.00 0.00 56 1016.4
20260508150539 15 0 0.0 3.2 0.00 0.00 0.00 57 1016.5
20260508150051 15 0 0.0 3.2 0.00 0.00 0.00 57 1016.4
20260508145540 15 0 0.0 3.2 0.00 0.00 0.00 58 1016.4
20260508145039 15 196 0.0 4.8 0.00 0.00 0.00 59 1016.4
20260508144552 14 211 1.6 4.8 0.00 0.00 0.00 61 1016.3
20260508144040 14 192 0.0 4.8 0.00 0.00 0.00 63 1016.2
20260508143540 13 167 0.0 4.8 0.00 0.00 0.00 64 1016.2
20260508143055 13 0 0.0 4.8 0.00 0.00 0.00 66 1016.2
20260508142539 12 0 0.0 3.2 0.00 0.00 0.00 67 1016.1
20260508142039 12 0 1.6 3.2 0.00 0.00 0.00 68 1016.1
20260508141600 12 0 0.0 3.2 0.00 0.00 0.00 69 1016.1
20260508141038 11 79 1.6 3.2 0.00 0.00 0.00 71 1016.1
20260508140541 11 0 0.0 1.6 0.00 0.00 0.00 71 1016.1
20260508140052 10 0 0.0 1.6 0.00 0.00 0.00 72 1016.0
20260508135540 10 0 0.0 1.6 0.00 0.00 0.00 72 1015.9
20260508135039 10 0 0.0 4.8 0.00 0.00 0.00 73 1015.9
20260508134553 9 0 0.0 4.8 0.00 0.00 0.00 73 1015.8
20260508134039 8 85 0.0 3.2 0.00 0.00 0.00 73 1015.7
20260508133539 8 0 0.0 3.2 0.00 0.00 0.00 73 1015.7
20260508133048 8 0 0.0 3.2 0.00 0.00 0.00 73 1015.6
20260508132539 7 360 0.0 4.8 0.00 0.00 0.00 73 1015.6
20260508132039 7 0 0.0 6.4 0.00 0.00 0.00 72 1015.5
20260508131603 7 89 1.6 6.4 0.00 0.00 0.00 72 1015.4
20260508131041 7 69 3.2 6.4 0.00 0.00 0.00 72 1015.3
20260508130542 7 73 1.6 4.8 0.00 0.00 0.00 71 1015.3
20260508130048 7 73 1.6 6.4 0.00 0.00 0.00 71 1015.2
20260508125539 6 77 1.6 6.4 0.00 0.00 0.00 71 1015.1
20260508125038 6 0 1.6 6.4 0.00 0.00 0.00 71 1015.1
20260508124548 6 62 1.6 4.8 0.00 0.00 0.00 71 1015.0
20260508124038 6 0 0.0 4.8 0.00 0.00 0.00 70 1015.0
20260508123539 6 61 3.2 8.0 0.00 0.00 0.00 70 1014.9
20260508123112 6 62 1.6 8.0 0.00 0.00 0.00 69 1014.8
20260508122538 6 63 4.8 8.0 0.00 0.00 0.00 69 1014.7
20260508122042 7 46 3.2 6.4 0.00 0.00 0.00 69 1014.8
20260508121601 7 43 1.6 4.8 0.00 0.00 0.00 69 1014.7
20260508121038 7 71 1.6 4.8 0.00 0.00 0.00 69 1014.7
20260508120539 7 0 0.0 8.0 0.00 0.00 0.00 69 1014.6
20260508120108 7 0 1.6 8.0 0.00 0.00 0.00 69 1014.6
20260508115538 7 78 3.2 8.0 0.00 0.00 0.00 69 1014.5
20260508115038 7 76 1.6 6.4 0.00 0.00 0.00 69 1014.5
20260508114558 7 72 1.6 4.8 0.00 0.00 0.00 69 1014.5
20260508114038 7 71 1.6 4.8 0.00 0.00 0.00 69 1014.5
20260508113539 7 71 1.6 4.8 0.00 0.00 0.00 70 1014.5
20260508113100 7 0 0.0 4.8 0.00 0.00 0.00 70 1014.5
20260508112538 7 71 3.2 6.4 0.00 0.00 0.00 70 1014.5
20260508112039 7 88 3.2 8.0 0.00 0.00 0.00 70 1014.5
20260508111553 7 87 3.2 8.0 0.00 0.00 0.00 69 1014.4
20260508111039 7 90 3.2 8.0 0.00 0.00 0.00 70 1014.4
20260508110539 7 88 3.2 8.0 0.00 0.00 0.00 70 1014.4
20260508110100 7 82 1.6 8.0 0.00 0.00 0.00 70 1014.4
20260508105539 7 74 3.2 8.0 0.00 0.00 0.00 70 1014.4
20260508105039 7 92 4.8 6.4 0.00 0.00 0.00 70 1014.3
20260508104550 7 86 3.2 6.4 0.00 0.00 0.00 70 1014.2
20260508104038 7 66 3.2 6.4 0.00 0.00 0.00 70 1014.2
20260508103540 7 59 1.6 6.4 0.00 0.00 0.00 70 1014.1
20260508103100 7 74 3.2 6.4 0.00 0.00 0.00 70 1014.0
20260508102539 7 80 3.2 6.4 0.00 0.00 0.00 70 1014.1
20260508102039 7 85 4.8 6.4 0.00 0.00 0.00 70 1014.1
20260508101553 7 110 3.2 6.4 0.00 0.00 0.00 70 1014.1
20260508101041 7 100 1.6 4.8 0.00 0.00 0.00 71 1014.0
20260508100539 7 61 1.6 8.0 0.00 0.00 0.00 70 1014.1
20260508100050 7 46 3.2 9.7 0.00 0.00 0.00 70 1014.0
20260508095541 7 40 6.4 9.7 0.00 0.00 0.00 70 1014.0
20260508095041 7 53 6.4 9.7 0.00 0.00 0.00 70 1013.9
20260508094546 7 69 3.2 6.4 0.00 0.00 0.00 69 1014.0
20260508094038 7 55 1.6 6.4 0.00 0.00 0.00 69 1014.1
20260508093543 7 84 1.6 6.4 0.00 0.00 0.00 69 1014.0
20260508093046 7 28 3.2 8.0 0.00 0.00 0.00 69 1014.0
20260508092539 7 349 3.2 8.0 0.00 0.00 0.00 68 1014.0
20260508092039 7 344 4.8 8.0 0.00 0.00 0.00 68 1014.0
20260508091552 7 327 3.2 6.4 0.00 0.00 0.00 68 1014.0
20260508091040 7 49 0.0 6.4 0.00 0.00 0.00 67 1014.0
20260508090539 7 137 1.6 6.4 0.00 0.00 0.00 67 1014.1
20260508090052 7 0 0.0 8.0 0.00 0.00 0.00 67 1014.0
20260508085538 7 355 3.2 8.0 0.00 0.00 0.00 66 1014.0
20260508085040 8 360 3.2 8.0 0.00 0.00 0.00 66 1013.9
20260508084549 8 352 1.6 4.8 0.00 0.00 0.00 66 1014.0
20260508084038 8 0 0.0 3.2 0.00 0.00 0.00 66 1014.0
20260508083539 8 0 0.0 6.4 0.00 0.00 0.00 66 1014.1
20260508083050 8 251 0.0 11.3 0.00 0.00 0.00 66 1014.0
20260508082538 8 178 3.2 14.5 0.00 0.00 0.00 65 1014.0
20260508082039 8 167 6.4 14.5 0.00 0.00 0.00 65 1014.1
20260508081548 8 180 0.0 8.0 0.00 0.00 0.00 64 1014.0
20260508081039 8 38 1.6 4.8 0.00 0.00 0.00 64 1013.9
20260508080538 8 38 3.2 6.4 0.00 0.00 0.00 64 1014.0
20260508080054 8 38 3.2 6.4 0.00 0.00 0.00 64 1013.9
20260508075538 8 39 4.8 6.4 0.00 0.00 0.00 64 1014.0
20260508075040 8 54 3.2 6.4 0.00 0.00 0.00 63 1014.0
20260508074550 8 65 3.2 6.4 0.00 0.00 0.00 63 1014.0
20260508074040 8 77 3.2 6.4 0.00 0.00 0.00 63 1013.9
20260508073539 8 61 0.0 4.8 0.00 0.00 0.00 63 1013.9
20260508073049 9 61 1.6 4.8 0.00 0.00 0.00 63 1014.0
20260508072538 9 61 3.2 4.8 0.00 0.00 0.00 63 1013.9
20260508072039 9 60 0.0 3.2 0.00 0.00 0.00 62 1014.0
20260508071552 9 0 0.0 1.6 0.00 0.00 0.00 62 1014.0
20260508071038 10 0 0.0 4.8 0.00 0.00 0.00 62 1014.0
20260508070538 10 0 0.0 4.8 0.00 0.00 0.00 62 1013.9
20260508070053 10 61 3.2 4.8 0.00 0.00 0.00 62 1014.0
20260508065538 10 90 1.6 4.8 0.00 0.00 0.00 61 1013.9
20260508065038 10 119 1.6 4.8 0.00 0.00 0.00 61 1013.9
20260508064555 10 119 1.6 4.8 0.00 0.00 0.00 61 1013.9
20260508064042 10 119 1.6 4.8 0.00 0.00 0.00 61 1013.9
20260508063539 10 119 1.6 8.0 0.00 0.00 0.00 61 1013.8
20260508063102 10 0 1.6 8.0 0.00 0.00 0.00 61 1013.7
20260508062538 11 351 4.8 8.0 0.00 0.00 0.00 61 1013.7
20260508062038 11 348 4.8 8.0 0.00 0.00 0.00 60 1013.7
20260508061553 11 346 4.8 8.0 0.00 0.00 0.00 60 1013.7
20260508061038 11 352 3.2 8.0 0.00 0.00 0.00 60 1013.6
20260508060538 11 344 3.2 9.7 0.00 0.00 0.00 60 1013.6
20260508060049 11 333 4.8 9.7 0.00 0.00 0.00 60 1013.6
20260508055539 11 327 4.8 11.3 0.00 0.00 0.00 59 1013.7
20260508055038 11 300 4.8 11.3 0.00 0.00 0.00 59 1013.6
20260508054547 11 307 4.8 8.0 0.00 0.00 0.00 58 1013.6
20260508054039 11 298 4.8 6.4 0.00 0.00 0.00 58 1013.6
20260508053538 12 286 1.6 4.8 0.00 0.00 0.00 57 1013.6
20260508053102 12 236 0.0 6.4 0.00 0.00 0.00 57 1013.5
20260508052539 12 0 1.6 6.4 0.00 0.00 0.00 56 1013.6
20260508052038 12 360 3.2 6.4 0.00 0.00 0.00 55 1013.5
20260508051548 12 360 3.2 6.4 0.00 0.00 0.00 55 1013.6
20260508051040 12 203 1.6 6.4 0.00 0.00 0.00 55 1013.5
20260508050538 12 30 3.2 8.0 0.00 0.00 0.00 54 1013.5
20260508050052 13 30 3.2 8.0 0.00 0.00 0.00 54 1013.3
20260508045538 13 32 4.8 8.0 0.00 0.00 0.00 54 1013.3
20260508045039 13 37 3.2 6.4 0.00 0.00 0.00 54 1013.2
20260508044545 13 36 3.2 4.8 0.00 0.00 0.00 53 1013.3
20260508044040 14 360 3.2 4.8 0.00 0.00 0.00 52 1013.3
20260508043539 14 360 3.2 6.4 0.00 0.00 0.00 52 1013.3
20260508043058 14 360 3.2 6.4 0.00 0.00 0.00 51 1013.3
20260508042539 14 45 3.2 8.0 0.00 0.00 0.00 51 1013.3
20260508042038 14 360 4.8 8.0 0.00 0.00 0.00 51 1013.3
20260508041550 14 360 4.8 8.0 0.00 0.00 0.00 51 1013.3
20260508041039 13 360 4.8 9.7 0.00 0.00 0.00 52 1013.2
20260508040538 13 53 4.8 9.7 0.00 0.00 0.00 53 1013.1
20260508040055 13 59 6.4 9.7 0.00 0.00 0.00 53 1013.1
20260508035538 14 360 4.8 8.0 0.00 0.00 0.00 54 1013.1
20260508035038 14 360 3.2 4.8 0.00 0.00 0.00 53 1013.1
20260508034547 15 360 1.6 4.8 0.00 0.00 0.00 52 1013.0
20260508034038 15 360 1.6 4.8 0.00 0.00 0.00 51 1013.1
20260508033538 15 360 1.6 4.8 0.00 0.00 0.00 51 1013.0
20260508033048 15 360 1.6 4.8 0.00 0.00 0.00 51 1013.0
20260508032539 16 360 1.6 4.8 0.00 0.00 0.00 49 1012.9
20260508032042 16 360 0.0 3.2 0.00 0.00 0.00 47 1012.9
20260508031551 16 0 0.0 3.2 0.00 0.00 0.00 46 1012.8
20260508031038 17 140 0.0 3.2 0.00 0.00 0.00 48 1012.8
20260508030538 17 0 0.0 0.0 0.00 0.00 0.00 45 1012.7
20260508030053 17 0 0.0 0.0 0.00 0.00 0.00 43 1012.7
20260508025538 17 0 0.0 3.2 0.00 0.00 0.00 44 1012.7
20260508025040 18 0 0.0 3.2 0.00 0.00 0.00 44 1012.7
20260508024553 18 0 0.0 3.2 0.00 0.00 0.00 44 1012.7
20260508024038 19 0 0.0 3.2 0.00 0.00 0.00 43 1012.6
20260508023538 20 0 0.0 3.2 0.00 0.00 0.00 40 1012.6
20260508023051 20 0 0.0 4.8 0.00 0.00 0.00 41 1012.6
20260508022538 20 140 1.6 4.8 0.00 0.00 0.00 41 1012.5
20260508022038 21 148 1.6 4.8 0.00 0.00 0.00 40 1012.5
20260508021555 21 0 0.0 0.0 0.00 0.00 0.00 38 1012.5
20260508021037 22 0 0.0 0.0 0.00 0.00 0.00 36 1012.5
20260508020538 22 0 0.0 0.0 0.00 0.00 0.00 37 1012.4
20260508020057 22 0 0.0 0.0 0.00 0.00 0.00 37 1012.4
20260508015538 23 0 0.0 4.8 0.00 0.00 0.00 38 1012.5
20260508015038 23 0 0.0 6.4 0.00 0.00 0.00 38 1012.4
20260508014553 23 181 1.6 6.4 0.00 0.00 0.00 35 1012.4
20260508014038 23 186 3.2 6.4 0.00 0.00 0.00 33 1012.4
20260508013538 23 194 1.6 14.5 0.00 0.00 0.00 32 1012.4
20260508013057 23 177 1.6 14.5 0.00 0.00 0.00 30 1012.4
20260508012538 24 283 6.4 12.9 0.00 0.00 0.00 29 1012.4
20260508012038 24 0 0.0 6.4 0.00 0.00 0.00 30 1012.4
20260508011549 24 301 1.6 8.0 0.00 0.00 0.00 30 1012.5
20260508011037 24 0 1.6 8.0 0.00 0.00 0.00 29 1012.5
20260508010538 25 241 1.6 9.7 0.00 0.00 0.00 30 1012.6
20260508010059 25 188 4.8 9.7 0.00 0.00 0.00 29 1012.6
20260508005541 25 211 4.8 12.9 0.00 0.00 0.00 29 1012.6
20260508005041 25 238 3.2 12.9 0.00 0.00 0.00 28 1012.7
20260508004554 25 227 4.8 12.9 0.00 0.00 0.00 29 1012.6
20260508004042 25 194 3.2 12.9 0.00 0.00 0.00 29 1012.7
20260508003538 25 197 3.2 12.9 0.00 0.00 0.00 29 1012.7
20260508003055 25 234 6.4 12.9 0.00 0.00 0.00 29 1012.6
20260508002539 24 0 3.2 9.7 0.00 0.00 0.00 29 1012.7
20260508002039 24 176 3.2 8.0 0.00 0.00 0.00 30 1012.7
20260508001612 24 63 0.0 6.4 0.00 0.00 0.00 30 1012.7
20260508001042 24 61 0.0 8.0 0.00 0.00 0.00 31 1012.8
20260508000543 24 88 1.6 9.7 0.00 0.00 0.00 29 1012.9